Location: Loup Canal
(41.4930°N, 97.5670°W)
Time: 07:09:54
(UTC-05:00)

Daily predictions for brighter satellites

Satellite Brightness Start Highest point End
(mag) Time Altitude Azimuth Time Altitude Azimuth Time Altitude Azimuth
Meteor 1-24 Rocket 3.9 20:11:35 10° N 20:17:09 85° W 20:22:53 10° S
CZ-3B DEB 3.5 20:08:18 10° WSW 20:20:24 65° NW 20:25:51 10° NE
FREGAT/IRIS 2.8 20:17:59 10° S 20:21:02 81° WSW 20:24:06 10° NNW
COSMOS 2487 3.4 20:19:26 10° N 20:22:37 29° ENE 20:25:47 10° SE
Cosmos 1271 Rocket 4.2 20:21:53 10° SE 20:24:47 19° E 20:27:41 10° NE
Cosmos 2123 Rocket 4.0 20:19:04 10° N 20:25:25 82° E 20:31:41 10° S
Cosmos 1758 3.6 20:22:13 10° SSE 20:25:59 43° E 20:29:48 10° NNE
H-2A R/B 4.3 20:21:51 10° SSW 20:26:38 33° SSE 20:47:51 11° E
Cosmos 1818 3.6 20:22:12 10° NNW 20:27:41 77° ENE 20:33:05 10° SE
Cosmos 1269 Rocket 4.3 20:23:07 10° N 20:28:14 48° ENE 20:33:20 10° SE
Cosmos 372 Rocket 4.3 20:24:57 10° S 20:29:43 41° ESE 20:34:33 10° NNE
Cosmos 1674 3.6 20:28:38 10° NNE 20:31:56 28° ENE 20:35:16 10° SE
Cosmos 1953 2.6 20:28:26 10° SSE 20:32:20 48° E 20:36:15 10° NNE
Cosmos 468 4.5 20:27:35 10° NNW 20:32:50 76° ENE 20:38:04 10° SSE
Cosmos 158 Rocket 4.4 20:28:00 10° N 20:32:55 44° ENE 20:37:55 10° SE
Lacrosse 5 3.1 20:28:36 10° WSW 20:33:26 43° NW 20:38:18 10° NE
Cosmos 1766 4.1 20:30:40 10° SSW 20:34:28 56° W 20:38:19 10° N
Cosmos 1408 Rocket 4.2 20:32:47 10° N 20:36:58 37° ENE 20:41:06 10° SE
Resurs 1-3 3.8 20:33:22 10° SSE 20:37:38 53° ENE 20:41:55 10° N
USA 215 4.4 20:33:09 10° ENE 20:37:46 20° ESE 20:42:22 10° SSE
Meteor 1-4 Rocket 2.3 20:39:32 10° S 20:42:58 70° E 20:46:27 10° NNE
Helios 1B rocket 3.2 20:40:47 10° NE 20:44:25 29° E 20:47:59 10° SSE
Cosmos 1939 Rocket 4.5 20:42:56 14° E 20:44:53 19° ENE 20:47:51 10° NNE
Lacrosse 5 rocket 1.7 20:48:05 10° NW 20:51:53 43° NE 20:54:09 20° ESE
Spot 2 Rocket 3.5 20:48:52 10° SSE 20:53:59 87° ENE 20:59:08 10° NNW
Cosmos 2098 Rocket 4.4 20:47:44 10° S 20:55:04 80° E 21:02:39 10° N
Cosmos 2061 Rocket 4.4 20:49:53 10° SSE 20:55:49 42° E 21:01:49 10° NNE
Cosmos 1544 3.7 20:52:18 10° SSW 20:55:53 60° W 20:59:34 10° N
SWAS 4.4 20:52:16 10° SSW 20:56:31 68° ESE 21:00:50 10° NNE
Cosmos 1076 Rocket 3.4 20:52:39 10° N 20:56:55 89° E 21:01:09 10° S
CZ-2D R/B 3.2 20:55:37 10° SSE 20:59:28 82° ENE 21:03:23 10° N
Cosmos 1459 Rocket 4.2 20:54:28 10° SSE 21:00:26 49° E 21:06:21 10° NNE
Timation 2 Rocket 3.9 20:54:17 10° NNW 21:00:37 73° ENE 21:06:20 12° SSE
Okean 3 Rocket 4.5 20:57:26 10° NNW 21:01:43 51° W 21:06:00 10° S
Cosmos 1447 Rocket 4.4 20:56:18 10° N 21:02:29 88° E 21:08:38 10° S
Cosmos 1805 4.2 20:59:25 10° SSW 21:03:12 50° W 21:07:02 10° N
Cosmos 1867 3.8 20:58:47 10° SW 21:04:13 74° NW 21:09:43 10° NNE
Abrixas 4.3 21:03:02 10° W 21:05:20 22° SW 21:06:58 14° S
Helios 1A 3.0 21:02:56 12° SSE 21:06:38 61° ENE 21:10:47 10° N
Cosmos 1184 Rocket 3.9 21:05:25 10° NNE 21:08:22 27° ENE 21:08:25 27° ENE
Cosmos 2173 Rocket 4.0 21:02:42 10° SSE 21:08:42 56° E 21:14:49 10° NNE
ALOS 3.7 21:04:21 10° SSW 21:08:43 39° W 21:13:05 10° NNW
Cosmos 1833 Rocket 2.7 21:05:24 10° NNW 21:11:03 85° WSW 21:16:34 11° SSE
Envisat 3.2 21:08:43 18° SE 21:12:13 49° ENE 21:17:05 10° N
Cosmos 1733 3.1 21:15:28 10° S 21:19:20 83° E 21:23:14 10° N
GPS 2-05 Rocket1 3.9 21:17:22 10° WSW 21:20:35 31° S 21:21:02 30° SSE
Cosmos 1470 2.7 21:17:19 10° S 21:21:18 89° W 21:25:17 10° N
Cosmos 2278 Rocket 4.3 21:16:37 10° WSW 21:21:28 29° NW 21:26:22 10° N
SeaSat 1 3.6 21:17:23 10° S 21:22:01 42° WSW 21:26:42 10° NW
Spot 1 4.3 21:18:18 11° SSE 21:22:51 87° WSW 21:27:51 10° NNW
ATLAS 5 CENTAUR R/B 2.0 21:18:50 10° SW 21:23:30 75° NW 21:28:38 10° NNE
Cosmos 1766 Rocket 4.0 21:19:31 10° NNW 21:23:59 65° W 21:28:24 10° S
ERS-1 Rocket 3.7 21:23:15 30° E 21:24:31 34° ENE 21:29:03 10° N
Geosat 3.9 21:19:44 10° NNE 21:24:48 83° ESE 21:29:49 10° SSW
Cosmos-2242 3.1 21:21:14 10° SSW 21:25:28 77° W 21:29:45 10° N
GP-B 3.4 21:24:54 10° S 21:29:18 68° W 21:33:45 10° N
USA 186 2.5 21:29:39 32° WSW 21:29:46 33° W 21:31:49 10° NNW
Cosmos 1356 Rocket 3.6 21:26:16 10° N 21:30:13 44° ENE 21:30:27 43° E
H-2A R/B 4.0 21:31:01 13° NE 21:31:01 13° NE 21:33:06 10° NNE
CZ-3 Stage 3 3.9 20:56:10 10° W 21:33:24 51° SSW 21:37:49 27° SE
CZ-4B DEB 2.7 21:33:45 65° SSW 21:34:08 79° W 21:37:14 10° NNW
Cosmos 1340 Rocket 3.0 21:32:00 10° NNW 21:36:00 71° W 21:38:08 26° S
BREEZE-M DEB (TANK) 3.4 21:36:20 10° NW 21:38:17 30° NNE 21:38:17 30° NNE
Resurs 01 Rocket 3.6 21:34:56 10° SSW 21:38:44 28° W 21:42:34 10° NW
Cosmos 2016 Rocket 3.8 21:34:41 10° S 21:40:52 73° E 21:47:00 10° NNE
ISS -2.8 21:41:45 10° WSW 21:44:53 44° NNW 21:45:27 40° N
Meteor 1-29 3.6 21:43:56 10° N 21:47:22 55° WNW 21:50:30 12° SSW
Cosmos 1725 Rocket 3.9 21:47:24 29° SSE 21:50:36 60° E 21:56:40 10° NNE
Cosmos 2082 Rocket 3.6 21:46:07 10° NW 21:51:13 35° WSW 21:56:16 10° SSW
ARGOS 4.0 21:55:16 33° ENE 21:55:16 33° ENE 21:59:40 10° N
Cosmos 1743 Rocket 3.9 21:50:43 10° NNW 21:55:08 64° W 21:56:52 35° SSW
Cosmos 1500 Rocket 3.4 21:51:47 10° N 21:56:08 87° W 21:56:35 71° S
YAOGAN 6 3.5 21:58:47 43° N 21:58:47 43° N 22:01:25 10° N
SL-14 R/B 3.3 21:54:43 10° N 21:58:18 74° NNW 21:58:18 74° NNW
Cosmos 2058 3.6 21:58:37 10° N 22:01:37 43° NNE 22:01:37 43° NNE
Meteor 1-11 4.1 21:57:13 10° N 22:02:49 84° E 22:04:09 54° SSE
Meteor 1-16 Rocket 4.3 21:57:27 10° S 22:03:18 83° W 22:09:17 10° N
SL-08 R/B 4.5 21:57:06 10° S 22:03:28 90° W 22:09:56 10° N
Cosmos 1328 4.2 22:02:01 10° NNW 22:05:56 57° W 22:06:02 57° WSW
Cosmos 2251 Rocket 3.6 22:02:44 10° NNW 22:08:04 75° WSW 22:09:14 54° S
Tsikada Rocket 3.8 22:06:24 10° N 22:12:39 82° E 22:14:02 57° SSE
BREEZE-M DEB (TANK) 3.8 22:11:20 10° WSW 22:15:29 83° NNW 22:32:00 10° ENE
Lacrosse 5 4.4 22:14:24 10° NW 22:17:36 16° NNW 22:20:47 10° NNE
Cosmos 2151 3.5 22:15:02 10° NNW 22:18:38 56° NW 22:18:38 56° NW
Cosmos 1939 Rocket 4.2 22:18:51 33° WSW 22:19:34 36° W 22:23:25 10° NNW
USA 215 3.1 22:14:48 10° NE 22:21:22 81° SE 22:27:54 10° SW
SPOT 5 3.3 22:22:08 58° NE 22:22:08 58° NE 22:26:43 10° N
Meteor 2-1 Rocket 4.1 22:25:50 81° SSW 22:26:09 89° WNW 22:31:50 10° N
Terra 4.0 22:31:05 15° NNE 22:31:05 15° NNE 22:32:16 10° NNE
Lacrosse 5 rocket 3.5 22:27:56 10° WNW 22:29:53 19° WSW 22:29:53 19° WSW
CZ-3B DEB 4.1 22:27:55 10° WNW 22:32:35 18° NNW 22:35:01 13° NNE
Cosmos 2369 Rocket 2.9 22:43:23 45° NNE 22:43:23 45° NNE 22:47:14 10° NNE
MetOp-B 4.4 22:44:08 64° WNW 22:44:08 64° WNW 22:48:54 10° NNW
USA 245 4.5 22:47:22 73° NNW 22:47:22 73° NNW 22:53:04 10° NNW
USA 267 3.7 22:53:31 50° NE 22:53:42 50° NNE 22:59:57 10° NW
Cosmos 2233 Rocket 4.1 22:54:44 70° WNW 22:54:44 70° WNW 23:00:38 10° N
Cosmos 1943 Rocket 4.4 23:10:18 15° NNE 23:10:18 15° NNE 23:11:12 10° NNE
H-2A R/B 3.4 23:11:38 36° NNW 23:11:38 36° NNW 23:14:41 10° NNW
CZ-4C R/B 4.2 23:33:39 23° NNE 23:33:39 23° NNE 23:36:06 10° NNE
